This is the latest recevied weather packets stored in our database for station/object KE8WAY. If no packets are shown the sender has not sent any weather packets the latest 10 day(s).
| Time | Temp. | Humidity | Pressure | Rain* | Wind** | Luminosity | Snow |
|---|---|---|---|---|---|---|---|
| 1777628954 | 5° C | 92% | 1012.3 hPa | 3.05 mm | - | 0 W/m² | - |
| 1777628651 | 5° C | 92% | 1012.3 hPa | 3.56 mm | - | 0 W/m² | - |
| 1777628348 | 5.56° C | 91% | 1012.5 hPa | 3.05 mm | - | 0 W/m² | - |
| 1777628044 | 5.56° C | 92% | 1012.5 hPa | 3.05 mm | - | 0 W/m² | - |
| 1777627743 | 5.56° C | 92% | 1012.6 hPa | 3.05 mm | - | 0 W/m² | - |
| 1777627442 | 5.56° C | 92% | 1012.8 hPa | 1.27 mm | - | 0 W/m² | - |
| 1777627139 | 5.56° C | 92% | 1012.8 hPa | 0 mm | - | 0 W/m² | - |
| 1777626836 | 5.56° C | 92% | 1012.9 hPa | 0 mm | - | 0 W/m² | - |
| 1777626531 | 5.56° C | 92% | 1012.8 hPa | 0 mm | - | 0 W/m² | - |
| 1777626226 | 5.56° C | 92% | 1013 hPa | 0 mm | - | 0 W/m² | - |
| 1777625924 | 5.56° C | 92% | 1012.8 hPa | 0 mm | - | 0 W/m² | - |
| 1777625621 | 5.56° C | 92% | 1012.9 hPa | 0 mm | - | 0 W/m² | - |
| 1777625316 | 5.56° C | 92% | 1013.1 hPa | 0 mm | - | 0 W/m² | - |
| 1777625014 | 5.56° C | 92% | 1013.1 hPa | 0 mm | - | 0 W/m² | - |
| 1777624710 | 5.56° C | 92% | 1013.1 hPa | 0 mm | - | 0 W/m² | - |
| 1777624406 | 5.56° C | 92% | 1013 hPa | 0 mm | - | 0 W/m² | - |
| 1777624103 | 5.56° C | 92% | 1012.9 hPa | 0 mm | - | 0 W/m² | - |
| 1777623800 | 5.56° C | 92% | 1013 hPa | 1.78 mm | - | 0 W/m² | - |
| 1777623496 | 5.56° C | 91% | 1012.9 hPa | 1.78 mm | - | 0 W/m² | - |
| 1777623194 | 5.56° C | 92% | 1013.1 hPa | 0 mm | - | 0 W/m² | - |
| 1777622891 | 5.56° C | 91% | 1013.3 hPa | 0 mm | - | 0 W/m² | - |
| 1777622586 | 5.56° C | 91% | 1013.2 hPa | 1.27 mm | - | 0 W/m² | - |
| 1777622284 | 5.56° C | 90% | 1013.4 hPa | 1.27 mm | - | 0 W/m² | - |
| 1777621981 | 5.56° C | 90% | 1013.4 hPa | 1.78 mm | - | 0 W/m² | - |
| 1777621675 | 5.56° C | 90% | 1013.1 hPa | 1.78 mm | - | 0 W/m² | - |
* Rain latest hour (hover to see other rain measurements)
** Current wind speed in m/s (hover to see current wind gust speed)